TimeMDT,TemperatureF,Dew PointF,Humidity,Sea Level PressureIn,VisibilityMPH,Wind Direction,Wind SpeedMPH,Gust SpeedMPH,PrecipitationIn,Events,Conditions,WindDirDegrees,DateUTC
12:55 AM,71.1,63.0,75,29.88,10.0,WSW,5.8,-,N/A,,Clear,240,2013-08-18 06:55:00
1:55 AM,70.0,63.0,78,29.86,10.0,SW,9.2,-,N/A,,Clear,220,2013-08-18 07:55:00
2:55 AM,70.0,63.0,78,29.85,10.0,SW,4.6,-,N/A,,Clear,220,2013-08-18 08:55:00
3:55 AM,68.0,63.0,84,29.85,10.0,SSW,6.9,-,N/A,,Clear,210,2013-08-18 09:55:00
4:55 AM,66.0,62.1,87,29.86,10.0,Calm,Calm,-,N/A,,Clear,0,2013-08-18 10:55:00
5:55 AM,63.0,61.0,93,29.87,6.0,ESE,6.9,-,N/A,,Clear,110,2013-08-18 11:55:00
6:25 AM,62.6,60.8,94,29.93,2.5,East,4.6,-,N/A,,Clear,100,2013-08-18 12:25:00
6:33 AM,62.6,60.8,94,29.94,3.0,East,3.5,-,N/A,,Clear,100,2013-08-18 12:33:00
6:55 AM,63.0,61.0,93,29.89,4.0,East,3.5,-,N/A,,Clear,100,2013-08-18 12:55:00
7:55 AM,68.0,64.0,87,29.88,10.0,Calm,Calm,-,N/A,,Clear,0,2013-08-18 13:55:00
8:55 AM,73.9,66.0,76,29.87,10.0,South,3.5,-,N/A,,Clear,180,2013-08-18 14:55:00
9:55 AM,80.1,66.9,64,29.87,10.0,SSW,8.1,-,N/A,,Clear,210,2013-08-18 15:55:00
10:55 AM,82.9,66.9,58,29.90,10.0,West,10.4,-,N/A,,Clear,280,2013-08-18 16:55:00
11:55 AM,82.0,66.9,60,29.91,10.0,North,12.7,-,N/A,,Clear,350,2013-08-18 17:55:00
12:55 PM,81.0,66.9,62,29.91,10.0,North,13.8,-,N/A,,Clear,360,2013-08-18 18:55:00
1:55 PM,82.9,66.9,58,29.90,10.0,NNE,10.4,-,N/A,,Clear,20,2013-08-18 19:55:00
2:55 PM,81.0,66.9,62,29.91,10.0,Calm,Calm,-,N/A,,Clear,0,2013-08-18 20:55:00
3:55 PM,81.0,69.1,67,29.88,10.0,SSE,5.8,-,N/A,,Clear,150,2013-08-18 21:55:00
4:55 PM,82.9,70.0,65,29.82,10.0,SE,8.1,-,N/A,,Clear,140,2013-08-18 22:55:00
5:55 PM,82.9,69.1,63,29.84,10.0,SSW,8.1,-,N/A,,Clear,200,2013-08-18 23:55:00
6:55 PM,82.9,71.1,67,29.84,10.0,Calm,Calm,-,N/A,,Clear,0,2013-08-19 00:55:00
7:55 PM,77.0,70.0,79,29.83,10.0,NE,8.1,-,N/A,,Clear,40,2013-08-19 01:55:00
8:55 PM,73.9,69.1,85,29.86,10.0,Calm,Calm,-,N/A,,Clear,0,2013-08-19 02:55:00
9:55 PM,72.0,68.0,87,29.86,10.0,Calm,Calm,-,N/A,,Clear,0,2013-08-19 03:55:00
10:55 PM,69.1,66.9,93,29.86,7.0,WNW,4.6,-,N/A,,Clear,300,2013-08-19 04:55:00
11:55 PM,68.0,66.0,93,29.85,6.0,WNW,4.6,-,N/A,,Clear,300,2013-08-19 05:55:00